Regional Weather Roundup
Issued by NWS

Home | Current Version | Previous Version | Text Only | Print | Product List | Glossary Off
Versions: 1 2 3 4 5 6 7 8 9 10 11 12 13 14 15 16 17 18 19 20 21 22 23 24 25 26 27 28 29 30 31 32 33 34 35 36 37 38 39 40 41 42 43 44 45 46 47 48 49 50

000
ASUS45 KTFX 281510
RWRMT
MONTANA REGIONAL WEATHER ROUNDUP
NATIONAL WEATHER SERVICE GREAT FALLS MT
900 AM MDT SUN AUG 28 2016

NOTE: "FAIR" INDICATES FEW OR NO CLOUDS BELOW 12000 FEET WITH NO
SIGNIFICANT WEATHER AND/OR OBSTRUCTIONS TO VISIBILITY.

MTZ001>007-043-281600-
WEST OF THE DIVIDE

CITY           SKY/WX    TMP DP  RH WIND       PRES   REMARKS
KALISPELL      MOSUNNY   64  45  49 VRB5      30.00R
MISSOULA       MOSUNNY   70  45  40 NW12      30.04R
BUTTE          SUNNY     58  34  40 N3        30.14R
MULLAN PASS    MOSUNNY   49  37  63 SW7       30.14R
DEER LODGE       N/A     63  43  48 NE3       30.11S
EUREKA           N/A     59  48  67 CALM      30.01R
HAMILTON         N/A     70  41  35 S5        30.06R
LIBBY            N/A     68  37  32 CALM      30.01R
PLAINS           N/A     68  41  37 CALM      30.03R
RONAN            N/A     70  42  36 SW7       30.07R
$$

MTZ008-052>055-281600-
SOUTHWEST MONTANA

CITY           SKY/WX    TMP DP  RH WIND       PRES   REMARKS
BOZEMAN        MOSUNNY   64  39  39 S7        30.08R
DILLON         CLOUDY    63  29  27 S9        30.12R HAZE
W YELLOWSTONE  PTSUNNY   45  27  49 CALM      30.27R HAZE
ENNIS          SUNNY     66  28  24 S14       30.17R
THREE FORKS      N/A     55  37  50 CALM      30.06R
TWIN BRIDGES     N/A     59  32  36 SE6       30.09R
$$

MTZ009-010-012-014-046-048-049-054-281600-
EAST SLOPES AND CENTRAL MONTANA

CITY           SKY/WX    TMP DP  RH WIND       PRES   REMARKS
CUT BANK       SUNNY     56  47  71 N17       30.03R
GREAT FALLS    MOSUNNY   70  42  36 W9        29.98R
MALMSTROM AFB  PTSUNNY   68  43  40 MISG      29.99R
HELENA         CLOUDY    71  41  33 W7        30.03F
CHOTEAU          N/A     66  41  39 NE8G17    30.03R
CONRAD           N/A     61  53  74 N10       30.03R
$$

MTZ011-013-016-021-045-047-050-051-281600-
NORTH CENTRAL MONTANA

CITY           SKY/WX    TMP DP  RH WIND       PRES   REMARKS
HAVRE          CLOUDY    62  52  69 CALM      29.97R
LEWISTOWN      PTSUNNY   70  46  42 VRB3      30.01R
N BAR RANCH      N/A     73  37  27 NW16      30.03R
CHINOOK          N/A     64  54  68 W8        29.95R
$$

MTZ017>020-022>027-061-062-281600-
NORTHEAST MONTANA

CITY           SKY/WX    TMP DP  RH WIND       PRES   REMARKS
GLASGOW        CLOUDY    69  51  52 SW10G16   29.86R
JORDAN           N/A     74  43  32 W9        29.88R
SIDNEY         CLOUDY    65  54  67 S10       29.86R
WOLF POINT     CLOUDY    64  50  60 S3        29.86S
POPLAR           N/A     66  46  48 CALM      29.86R
SCOBEY           N/A     69  44  40 S1        29.87R
$$

MTZ028>42-056>058-281600-
SOUTHCENTRAL AND SOUTHEAST MONTANA

CITY           SKY/WX    TMP DP  RH WIND       PRES   REMARKS
BAKER          SUNNY     72  52  49 CALM      29.94R
BILLINGS       CLOUDY    64  38  38 SW14      30.00R
LIVINGSTON     CLOUDY    68  34  28 NW16      30.06R
MILES CITY     CLOUDY    65  46  50 S5        29.92R
EKALAKA          N/A     77  38  24 W1        29.95S
FORSYTH          N/A     66  43  42 W5        29.93R
LAUREL           N/A     61  39  44 S5        29.99R
ROUNDUP          N/A     63  38  39 S8        29.90S
$$

REGIONAL REPORTS...DAKOTAS

CITY           SKY/WX    TMP DP  RH WIND       PRES   REMARKS
WILLISTON      MOSUNNY   70  54  56 S7        29.86R
MINOT          SUNNY     76  59  55 S7        29.87S
DICKINSON      SUNNY     70  55  59 SW7       29.90R
CROSBY           N/A     68  55  64 SW10      29.86R
WATFORD CITY     N/A     75  54  46 S7        29.87S
BISMARCK       SUNNY     70  63  78 SE9       29.91S
GRAND FORKS    MOSUNNY   69  61  75 S14       29.99S
FARGO          MOSUNNY   71  62  73 SE13      30.02R
BUFFALO SD       N/A     67  57  70 SW3       29.89S
RAPID CITY     SUNNY     73  51  46 NW5       29.97R
$$

REGIONAL REPORTS...WYOMING/IDAHO/WASHINGTON

CITY           SKY/WX    TMP DP  RH WIND       PRES   REMARKS
GILLETTE       SUNNY     70  37  29 CALM      30.04R
SHERIDAN       SUNNY     68  50  52 CALM      30.01R
BUFFALO WY     SUNNY     79  29  16 NW8       30.08R
CODY           CLOUDY    70  30  23 W10       30.10R
YELLOWSTONE LA   N/A     48  38  68 CALM      30.34R
IDAHO FALLS    SUNNY     60  37  42 CALM      30.16R
SALMON         CLOUDY    50  39  66 CALM      30.11R
BOISE          SUNNY     65  34  31 E6        30.09R
SPOKANE        PTSUNNY   58  44  60 S12       30.02R
$$

REGIONAL REPORTS...ALBERTA

CITY           SKY/WX    TMP DP  RH WIND       PRES   REMARKS
EDMONTON       CLOUDY    46  39  76 NW17G23   30.01R
CALGARY        CLOUDY    45  37  76 N17G24    30.07R
LETHBRIDGE     CLOUDY    52  43  71 N14G21    30.06R
MEDICINE HAT   CLOUDY    57  50  77 NW14      30.00R
WATERTON GATE    N/A     48  46  93 E5          N/A
CARDSTON         N/A     48  46  93 N6          N/A
MILK RIVER       N/A     54  50  87 N14         N/A
$$

REGIONAL REPORTS...SASKATCHEWAN

CITY           SKY/WX    TMP DP  RH WIND       PRES   REMARKS
SWIFT CURRENT  SUNNY     55  52  88 W15G23    29.92R
REGINA         PTSUNNY   63  54  72 NW10      29.84R
SASKATOON      PTSUNNY   63  54  72 W16G22    29.82R
CYPRESS HILLS    N/A     50  46  87 N7          N/A
$$



USA.gov is the U.S. government's official web portal to all federal, state and local government web resources and services.